Change the Weather History Date:

Friday, March 22, 2013

  Actual Average Record
Temperature  
Mean Temperature 64 °F -  
Max Temperature 79 °F 76 °F 87 °F (2012)
Min Temperature 50 °F 57 °F 46 °F (1998)
Growing Degree Days 14 (Base 50)    
Moisture  
Dew Point 50 °F    
Average Humidity 65    
Maximum Humidity 93    
Minimum Humidity 33    
Precipitation  
Precipitation 0.13 in - - ()
Sea Level Pressure  
Sea Level Pressure 29.99 in    
Wind  
Wind Speed 5 mph (East)    
Max Wind Speed 14 mph    
Max Gust Speed 16 mph    
Visibility 9 miles    
Events Rain    
Averages and records for this station are not official NWS values.
T = Trace of Precipitation, MM = Missing Value Source: NWS Daily Summary

Daily Weather History Graph

Daily Weather History Graph

Search for Another Location

Airport or City:

Trip Planner

Search our weather history database for the weather conditions in past years. The results will help you decide how hot, cold, wet, or windy it might be!

Date:

Astronomy

Mar. 22, 2013 Rise Set
Actual Time 7:26 AM EDT 7:37 PM EDT
Civil Twilight 7:03 AM EDT 8:01 PM EDT
Nautical Twilight 6:35 AM EDT 8:29 PM EDT
Astronomical Twilight 6:07 AM EDT 8:56 PM EDT
Moon 3:23 PM EDT (3/22) 4:05 AM EDT (3/22)
Length of Visible Light 12h 58m
Length of Day
12h 11m
Waxing Gibbous, 77% of the Moon is Illuminated
Mar 22
Waxing Gibbous
Mar 27
Full
Apr 3
Last Quarter
Apr 10
New
Apr 18
First Quarter

Hourly Weather History & Observations

Time (EDT) Temp. Dew Point Humidity Pressure Visibility Wind Dir Wind Speed Gust Speed Precip Events Conditions
12:53 AM 54.0 °F 42.1 °F 64% 29.98 in 10.0 mi WNW 5.8 mph - N/A   Clear
1:53 AM 54.0 °F 44.1 °F 69% 29.97 in 10.0 mi NNW 3.5 mph - N/A   Clear
2:53 AM 53.1 °F 44.1 °F 71% 29.96 in 10.0 mi Calm Calm - N/A   Clear
3:53 AM 51.1 °F 44.1 °F 77% 29.95 in 10.0 mi Calm Calm - N/A   Clear
4:53 AM 53.1 °F 44.1 °F 71% 29.96 in 10.0 mi Calm Calm - N/A   Clear
5:53 AM 50.0 °F 43.0 °F 77% 29.97 in 10.0 mi Calm Calm - N/A   Clear
6:53 AM 51.1 °F 43.0 °F 74% 29.99 in 10.0 mi Calm Calm - N/A   Scattered Clouds
7:53 AM 52.0 °F 44.1 °F 74% 30.03 in 10.0 mi North 5.8 mph - N/A   Partly Cloudy
8:53 AM 55.9 °F 44.1 °F 64% 30.04 in 10.0 mi NNE 5.8 mph - N/A   Clear
9:53 AM 62.1 °F 43.0 °F 50% 30.05 in 10.0 mi NE 6.9 mph - N/A   Clear
10:53 AM 66.9 °F 42.1 °F 40% 30.05 in 10.0 mi ENE 10.4 mph - N/A   Clear
11:53 AM 72.0 °F 41.0 °F 33% 30.04 in 10.0 mi Variable 6.9 mph - N/A   Clear
12:53 PM 73.0 °F 42.1 °F 33% 30.01 in 10.0 mi Calm Calm - N/A   Partly Cloudy
1:53 PM 75.9 °F 48.9 °F 38% 29.99 in 10.0 mi SW 9.2 mph - N/A   Clear
2:53 PM 78.1 °F 48.0 °F 35% 29.97 in 10.0 mi SSE 12.7 mph 16.1 mph N/A   Mostly Cloudy
3:53 PM 79.0 °F 48.0 °F 34% 29.94 in 10.0 mi SSW 12.7 mph - N/A   Clear
4:53 PM 77.0 °F 50.0 °F 39% 29.94 in 10.0 mi South 6.9 mph - N/A   Overcast
5:53 PM 71.1 °F 55.9 °F 59% 29.95 in 9.0 mi SSE 13.8 mph - 0.00 in Rain Light Rain
6:53 PM 64.9 °F 57.9 °F 78% 29.97 in 10.0 mi East 8.1 mph - 0.01 in Rain Light Rain
7:14 PM 64.4 °F 59.0 °F 83% 30.00 in 1.8 mi Calm Calm - 0.07 in Rain Heavy Rain
7:26 PM 62.6 °F 59.0 °F 88% 29.98 in 3.0 mi NE 4.6 mph - 0.11 in Rain Rain
7:53 PM 63.0 °F 60.1 °F 90% 29.98 in 8.0 mi East 8.1 mph - 0.11 in   Overcast
8:53 PM 64.0 °F 59.0 °F 84% 30.00 in 10.0 mi East 6.9 mph - N/A   Overcast
9:53 PM 64.0 °F 60.1 °F 87% 30.02 in 10.0 mi East 6.9 mph - 0.00 in   Overcast
10:53 PM 63.0 °F 61.0 °F 93% 30.02 in 10.0 mi ENE 5.8 mph - N/A   Overcast
11:53 PM 63.0 °F 61.0 °F 93% 30.01 in 10.0 mi ESE 5.8 mph - 0.01 in   Overcast